H1 CPF 2 NER 2022 5 1 9 121 01 glonass133 H2 1403201 9133 40001 2022 5 1 0 0 0 2022 5 4 23 45 0 900 1 1 0 0 0 1 H9 10 0 59700 0.00000 0 3349584.566 -13809541.429 21173469.449 10 0 59700 900.00000 0 5326693.634 -15379942.324 19628461.600 10 0 59700 1800.00000 0 7016085.808 -16958067.741 17701822.557 10 0 59700 2700.00000 0 8395265.339 -18480640.098 15430963.135 10 0 59700 3600.00000 0 9454836.932 -19883127.387 12860005.054 10 0 59700 4500.00000 0 10198639.509 -21102457.241 10038923.823 10 0 59700 5400.00000 0 10643324.591 -22079690.476 7022575.451 10 0 59700 6300.00000 0 10817397.961 -22762541.070 3869625.956 10 0 59700 7200.00000 0 10759766.015 -23107635.745 641404.903 10 0 59700 8100.00000 0 10517849.332 -23082417.166 -2599294.139 10 0 59700 9000.00000 0 10145344.419 -22666609.805 -5789442.131 10 0 59700 9900.00000 0 9699729.535 -21853186.011 -8867007.168 10 0 59700 10800.00000 0 9239621.355 -20648791.137 -11772166.381 10 0 59700 11700.00000 0 8822095.407 -19073609.503 -14448472.795 10 0 59700 12600.00000 0 8500084.521 -17160676.759 -16843953.882 10 0 59700 13500.00000 0 8319965.914 -14954667.548 -18912120.268 10 0 59700 14400.00000 0 8319439.237 -12510209.368 -20612865.130 10 0 59700 15300.00000 0 8525785.217 -9889793.289 -21913237.173 10 0 59700 16200.00000 0 8954578.241 -7161368.771 -22788072.914 10 0 59700 17100.00000 0 9608906.889 -4395722.574 -23220476.850 10 0 59700 18000.00000 0 10479134.962 -1663750.518 -23202141.068 10 0 59700 18900.00000 0 11543212.871 966265.236 -22733498.985 10 0 59700 19800.00000 0 12767526.306 3431261.272 -21823710.906 10 0 59700 20700.00000 0 14108246.698 5675773.312 -20490482.171 10 0 59700 21600.00000 0 15513127.168 7653994.460 -18759717.629 10 0 59700 22500.00000 0 16923669.151 9331427.251 -16665019.054 10 0 59700 23400.00000 0 18277569.408 10686062.220 -14247035.022 10 0 59700 24300.00000 0 19511345.380 11709035.387 -11552675.399 10 0 59700 25200.00000 0 20563029.310 12404738.604 -8634205.149 10 0 59700 26100.00000 0 21374818.419 12790379.333 -5548234.557 10 0 59700 27000.00000 0 21895570.090 12895009.377 -2354625.006 10 0 59700 27900.00000 0 22083037.245 12758064.211 884668.862 10 0 59700 28800.00000 0 21905749.729 12427474.964 4106798.255 10 0 59700 29700.00000 0 21344462.212 11957433.101 7249237.462 10 0 59700 30600.00000 0 20393107.068 11405902.396 10250995.622 10 0 59700 31500.00000 0 19059211.415 10831983.404 13053799.336 10 0 59700 32400.00000 0 17363759.821 10293241.878 15603223.184 10 0 59700 33300.00000 0 15340507.365 9843114.059 17849746.150 10 0 59700 34200.00000 0 13034770.721 9528498.524 19749713.426 10 0 59700 35100.00000 0 10501746.692 9387636.421 21266185.033 10 0 59700 36000.00000 0 7804427.256 9448369.785 22369654.916 10 0 59700 36900.00000 0 5011197.076 9726851.795 23038626.619 10 0 59700 37800.00000 0 2193212.519 10226763.862 23260034.462 10 0 59700 38700.00000 0 -578329.658 10939073.255 23029501.981 10 0 59700 39600.00000 0 -3234921.087 11842342.312 22351432.424 10 0 59700 40500.00000 0 -5713355.279 12903577.168 21238929.196 10 0 59700 41400.00000 0 -7958117.728 14079581.252 19713547.283 10 0 59700 42300.00000 0 -9923453.567 15318757.489 17804879.921 10 0 59700 43200.00000 0 -11575027.155 16563284.077 15549987.861 10 0 59700 44100.00000 0 -12891104.800 17751572.723 12992681.755 10 0 59700 45000.00000 0 -13863211.666 18820905.961 10182671.173 10 0 59700 45900.00000 0 -14496236.027 19710142.268 7174596.587 10 0 59700 46800.00000 0 -14807977.297 20362374.467 4026963.143 10 0 59700 47700.00000 0 -14828157.727 20727428.594 800997.372 10 0 59700 48600.00000 0 -14596940.558 20764096.923 -2440550.342 10 0 59700 49500.00000 0 -14163018.345 20442010.042 -5634633.486 10 0 59700 50400.00000 0 -13581353.446 19743068.123 -8719142.448 10 0 59700 51300.00000 0 -12910667.445 18662370.320 -11634118.014 10 0 59700 52200.00000 0 -12210786.775 17208602.554 -14322921.016 10 0 59700 53100.00000 0 -11539957.692 15403867.003 -16733334.741 10 0 59700 54000.00000 0 -10952244.748 13282960.242 -18818578.532 10 0 59700 54900.00000 0 -10495122.965 10892130.116 -20538212.968 10 0 59700 55800.00000 0 -10207365.387 8287363.367 -21858919.400 10 0 59700 56700.00000 0 -10117314.822 5532275.349 -22755139.432 10 0 59700 57600.00000 0 -10241612.129 2695689.557 -23209562.758 10 0 59700 58500.00000 0 -10584434.056 -150992.676 -23213454.789 10 0 59700 59400.00000 0 -11137272.081 -2936523.619 -22766818.567 10 0 59700 60300.00000 0 -11879261.167 -5592529.211 -21878388.554 10 0 59700 61200.00000 0 -12778044.285 -8056105.844 -20565456.888 10 0 59700 62100.00000 0 -13791136.343 -10272187.325 -18853535.725 10 0 59700 63000.00000 0 -14867730.414 -12195585.129 -16775862.146 10 0 59700 63900.00000 0 -15950870.649 -13792618.430 -14372755.021 10 0 59700 64800.00000 0 -16979901.048 -15042267.483 -11690835.847 10 0 59700 65700.00000 0 -17893087.585 -15936803.627 -8782128.136 10 0 59700 66600.00000 0 -18630303.818 -16481870.670 -5703052.364 10 0 59700 67500.00000 0 -19135667.253 -16696015.381 -2513335.486 10 0 59700 68400.00000 0 -19360015.568 -16609687.593 725144.212 10 0 59700 69300.00000 0 -19263118.323 -16263752.604 3949554.654 10 0 59700 70200.00000 0 -18815530.626 -15707578.963 7097326.790 10 0 59700 71100.00000 0 -18000010.108 -14996782.541 10107367.119 10 0 59700 72000.00000 0 -16812436.763 -14190722.165 12921242.229 10 0 59700 72900.00000 0 -15262195.948 -13349852.580 15484312.352 10 0 59700 73800.00000 0 -13372007.251 -12533046.402 17746791.921 10 0 59700 74700.00000 0 -11177205.125 -11794998.026 19664716.479 10 0 59700 75600.00000 0 -8724500.072 -11183818.940 21200797.316 10 0 59700 76500.00000 0 -6070270.700 -10738925.833 22325147.349 10 0 59700 77400.00000 0 -3278456.733 -10489310.568 23015864.219 10 0 59700 78300.00000 0 -418139.447 -10452265.083 23259459.385 10 0 59700 79200.00000 0 2439090.849 -10632615.211 23051124.804 10 0 59700 80100.00000 0 5221871.713 -11022496.129 22394831.849 10 0 59700 81000.00000 0 7861796.885 -11601679.430 21303260.167 10 0 59700 81900.00000 0 10296023.249 -12338438.678 19797557.387 10 0 59700 82800.00000 0 12469648.388 -13190917.592 17906933.721 10 0 59700 83700.00000 0 14337760.171 -14108943.763 15668098.722 10 0 59700 84600.00000 0 15867073.255 -15036211.820 13124550.529 10 0 59700 85500.00000 0 17037084.453 -15912744.086 10325731.011 10 0 59701 0.00000 0 17840699.027 -16677524.719 7326063.275 10 0 59701 900.00000 0 18284302.607 -17271196.025 4183888.625 10 0 59701 1800.00000 0 18387275.411 -17638701.441 960328.121 10 0 59701 2700.00000 0 18180971.589 -17731763.959 -2281913.954 10 0 59701 3600.00000 0 17707206.611 -17511093.318 -5479776.651 10 0 59701 4500.00000 0 17016318.175 -16948228.125 -8571075.709 10 0 59701 5400.00000 0 16164883.630 -16026934.202 -11495718.594 10 0 59701 6300.00000 0 15213191.443 -14744099.373 -14196876.851 10 0 59701 7200.00000 0 14222574.495 -13110086.384 -16622092.345 10 0 59701 8100.00000 0 13252718.505 -11148528.676 -18724295.689 10 0 59701 9000.00000 0 12359059.577 -8895577.174 -20462717.163 10 0 59701 9900.00000 0 11590380.651 -6398629.443 -21803672.763 10 0 59701 10800.00000 0 10986707.839 -3714594.015 -22721210.820 10 0 59701 11700.00000 0 10577594.643 -907761.942 -23197607.485 10 0 59701 12600.00000 0 10380865.424 1952626.184 -23223702.333 10 0 59701 13500.00000 0 10401870.104 4795017.228 -22799068.464 10 0 59701 14400.00000 0 10633280.555 7548277.826 -21932014.515 10 0 59701 15300.00000 0 11055436.489 10144409.475 -20639419.053 10 0 59701 16200.00000 0 11637225.798 12521134.872 -18946400.790 10 0 59701 17100.00000 0 12337462.031 14624249.341 -16885831.002 10 0 59701 18000.00000 0 13106701.027 16409640.822 -14497697.361 10 0 59701 18900.00000 0 13889420.424 17844895.664 -11828331.125 10 0 59701 19800.00000 0 14626470.542 18910424.534 -8929512.118 10 0 59701 20700.00000 0 15257693.719 19600062.448 -5857468.407 10 0 59701 21600.00000 0 15724601.980 19921118.858 -2671789.610 10 0 59701 22500.00000 0 15973000.275 19893876.477 565725.495 10 0 59701 23400.00000 0 15955444.624 19550560.487 3792264.849 10 0 59701 24300.00000 0 15633431.227 18933821.931 6945219.416 10 0 59701 25200.00000 0 14979223.728 18094799.403 9963396.357 10 0 59701 26100.00000 0 13977240.855 17090840.793 12788205.404 10 0 59701 27000.00000 0 12624945.030 15982981.132 15364795.398 10 0 59701 27900.00000 0 10933193.322 14833282.717 17643118.910 10 0 59701 28800.00000 0 8926034.665 13702149.467 19578904.240 10 0 59701 29700.00000 0 6639960.346 12645728.468 21134516.023 10 0 59701 30600.00000 0 4122637.527 11713507.896 22279687.864 10 0 59701 31500.00000 0 1431177.263 10946212.285 22992112.826 10 0 59701 32400.00000 0 -1369992.261 10374083.574 23257880.383 10 0 59701 33300.00000 0 -4211560.029 10015620.184 23071751.329 10 0 59701 34200.00000 0 -7021973.798 9876827.250 22437265.048 10 0 59701 35100.00000 0 -9730180.157 9951009.690 21366676.801 10 0 59701 36000.00000 0 -12268349.814 10219117.047 19880725.677 10 0 59701 36900.00000 0 -14574475.212 10650625.867 18008237.181 10 0 59701 37800.00000 0 -16594732.687 11204922.664 15785567.531 10 0 59701 38700.00000 0 -18285510.973 11833129.316 13255899.846 10 0 59701 39600.00000 0 -19615021.467 12480293.881 10468405.514 10 0 59701 40500.00000 0 -20564423.167 13087854.071 7477286.784 10 0 59701 41400.00000 0 -21128415.461 13596268.848 4340719.177 10 0 59701 42300.00000 0 -21315274.300 13947706.179 1119714.721 10 0 59701 43200.00000 0 -21146330.919 14088672.400 -2123071.395 10 0 59701 44100.00000 0 -20654915.877 13972470.957 -5324566.723 10 0 59701 45000.00000 0 -19884813.904 13561385.500 -8422515.204 10 0 59701 45900.00000 0 -18888295.827 12828494.047 -11356693.716 10 0 59701 46800.00000 0 -17723811.682 11759036.677 -14070087.081 10 0 59701 47700.00000 0 -16453443.333 10351278.324 -16509998.077 10 0 59701 48600.00000 0 -15140224.819 8616829.685 -18629070.630 10 0 59701 49500.00000 0 -13845443.816 6580412.227 -20386206.422 10 0 59701 50400.00000 0 -12626038.026 4279076.761 -21747357.415 10 0 59701 51300.00000 0 -11532195.776 1760907.886 -22686179.591 10 0 59701 52200.00000 0 -10605261.092 -916732.089 -23184536.074 10 0 59701 53100.00000 0 -9876030.407 -3689346.927 -23232840.717 10 0 59701 54000.00000 0 -9363511.299 -6487749.424 -22830236.397 10 0 59701 54900.00000 0 -9074194.223 -9240702.750 -21984605.278 10 0 59701 55800.00000 0 -9001866.677 -11877651.306 -20712411.339 10 0 59701 56700.00000 0 -9127976.602 -14331428.715 -19038378.508 10 0 59701 57600.00000 0 -9422528.979 -16540831.609 -16995010.623 10 0 59701 58500.00000 0 -9845477.409 -18452953.282 -14621962.295 10 0 59701 59400.00000 0 -10348551.835 -20025181.267 -11965272.508 10 0 59701 60300.00000 0 -10877445.397 -21226776.690 -9076475.242 10 0 59701 61200.00000 0 -11374268.314 -22039970.374 -6011603.937 10 0 59701 62100.00000 0 -11780165.439 -22460530.756 -2830108.619 10 0 59701 63000.00000 0 -12037987.122 -22497780.507 406293.731 10 0 59701 63900.00000 0 -12094900.610 -22174061.650 3634813.391 10 0 59701 64800.00000 0 -11904831.575 -21523672.028 6792803.699 10 0 59701 65700.00000 0 -11430632.239 -20591318.037 9818974.880 10 0 59701 66600.00000 0 -10645884.052 -19430148.770 12654582.234 10 0 59701 67500.00000 0 -9536257.964 -18099454.280 15244565.609 10 0 59701 68400.00000 0 -8100373.901 -16662124.640 17538618.022 10 0 59701 69300.00000 0 -6350121.959 -15181976.519 19492162.667 10 0 59701 70200.00000 0 -4310430.325 -13721059.411 21067219.424 10 0 59701 71100.00000 0 -2018487.962 -12337054.420 22233144.190 10 0 59701 72000.00000 0 477547.000 -11080874.593 22967226.705 10 0 59701 72900.00000 0 3120300.914 -9994567.260 23255135.377 10 0 59701 73800.00000 0 5845328.717 -9109606.149 23091200.378 10 0 59701 74700.00000 0 8583560.438 -8445644.829 22478529.340 10 0 59701 75600.00000 0 11263949.451 -8009783.613 21428953.038 10 0 59701 76500.00000 0 13816213.135 -7796380.635 19962801.644 10 0 59701 77400.00000 0 16173552.396 -7787414.981 18108515.301 10 0 59701 78300.00000 0 18275237.182 -7953386.523 15902095.937 10 0 59701 79200.00000 0 20068950.355 -8254714.382 13386410.400 10 0 59701 80100.00000 0 21512792.050 -8643574.858 10610358.007 10 0 59701 81000.00000 0 22576860.721 -9066100.807 7627918.473 10 0 59701 81900.00000 0 23244344.719 -9464848.972 4497098.701 10 0 59701 82800.00000 0 23512078.689 -9781430.156 1278799.311 10 0 59701 83700.00000 0 23390541.822 -9959190.021 -1964376.494 10 0 59701 84600.00000 0 22903298.535 -9945825.985 -5169347.832 10 0 59701 85500.00000 0 22085905.876 -9695828.398 -8273789.980 10 0 59702 0.00000 0 20984334.703 -9172641.681 -11217352.060 10 0 59702 900.00000 0 19652971.475 -8350452.737 -13942835.678 10 0 59702 1800.00000 0 18152287.346 -7215531.034 -16397307.032 10 0 59702 2700.00000 0 16546271.550 -5767062.159 -18533125.931 10 0 59702 3600.00000 0 14899739.066 -4017439.786 -20308867.776 10 0 59702 4500.00000 0 13275625.468 -1992003.084 -21690122.531 10 0 59702 5400.00000 0 11732382.580 271769.908 -22650155.563 10 0 59702 6300.00000 0 10321583.646 2725579.687 -23170418.364 10 0 59702 7200.00000 0 9085837.662 5312078.947 -23240900.102 10 0 59702 8100.00000 0 8057099.078 7967029.218 -22860314.082 10 0 59702 9000.00000 0 7255442.359 10621751.496 -22036116.235 10 0 59702 9900.00000 0 6688351.401 13205769.680 -20784355.794 10 0 59702 10800.00000 0 6350552.199 15649537.949 -19129361.344 10 0 59702 11700.00000 0 6224394.570 17887139.682 -17103268.309 10 0 59702 12600.00000 0 6280765.971 19858846.622 -14745396.868 10 0 59702 13500.00000 0 6480498.213 21513432.792 -12101491.946 10 0 59702 14400.00000 0 6776207.461 22810147.623 -9222839.503 10 0 59702 15300.00000 0 7114489.689 23720266.735 -6165275.799 10 0 59702 16200.00000 0 7438378.945 24228156.239 -2988108.382 10 0 59702 17100.00000 0 7689964.594 24331806.571 247030.716 10 0 59702 18000.00000 0 7813056.983 24042813.806 3477377.446 10 0 59702 18900.00000 0 7755788.736 23385809.513 6640250.932 10 0 59702 19800.00000 0 7473041.523 22397363.150 9674267.868 10 0 59702 20700.00000 0 6928595.280 21124403.088 12520532.410 10 0 59702 21600.00000 0 6096908.472 19622222.477 15123778.517 10 0 59702 22500.00000 0 4964453.311 17952153.484 17433442.527 10 0 59702 23400.00000 0 3530548.542 16179007.315 19404645.111 10 0 59702 24300.00000 0 1807653.336 14368387.129 20999063.660 10 0 59702 25200.00000 0 -178891.668 12583986.142 22185678.258 10 0 59702 26100.00000 0 -2391666.952 10884983.863 22941376.825 10 0 59702 27000.00000 0 -4782488.508 9323649.105 23251407.742 10 0 59702 27900.00000 0 -7294180.793 7943249.781 23109671.119 10 0 59702 28800.00000 0 -9862735.743 6776356.691 22518842.835 10 0 59702 29700.00000 0 -12419769.151 5843611.972 21490328.636 10 0 59702 30600.00000 0 -14895173.120 5153013.508 20044048.648 10 0 59702 31500.00000 0 -17219854.691 4699745.002 18208055.959 10 0 59702 32400.00000 0 -19328446.974 4466558.515 16017996.018 10 0 59702 33300.00000 0 -21161879.808 4424692.952 13516416.763 10 0 59702 34200.00000 0 -22669702.474 4535289.405 10751942.473 10 0 59702 35100.00000 0 -23812061.171 4751243.036 7778327.138 10 0 59702 36000.00000 0 -24561248.202 5019412.595 4653405.728 10 0 59702 36900.00000 0 -24902757.728 5283093.285 1437964.128 10 0 59702 37800.00000 0 -24835803.751 5484647.363 -1805449.734 10 0 59702 38700.00000 0 -24373278.733 5568179.972 -5013749.732 10 0 59702 39600.00000 0 -23541155.003 5482145.805 -8124545.545 10 0 59702 40500.00000 0 -22377354.775 5181775.101 -11077361.958 10 0 59702 41400.00000 0 -20930137.088 4631215.290 -13814819.013 10 0 59702 42300.00000 0 -19256070.411 3805296.860 -16283749.334 10 0 59702 43200.00000 0 -17417676.923 2690848.134 -18436230.744 10 0 59702 44100.00000 0 -15480848.072 1287502.858 -20230514.092 10 0 59702 45000.00000 0 -13512140.272 -392033.814 -21631828.606 10 0 59702 45900.00000 0 -11576064.110 -2322272.652 -22613049.800 10 0 59702 46800.00000 0 -9732480.236 -4465769.401 -23155217.777 10 0 59702 47700.00000 0 -8034210.168 -6774461.346 -23247896.757 10 0 59702 48600.00000 0 -6524960.850 -9191456.200 -22889369.746 10 0 59702 49500.00000 0 -5237648.339 -11653199.416 -22086665.296 10 0 59702 50400.00000 0 -4193189.242 -14091930.380 -20855416.389 10 0 59702 51300.00000 0 -3399808.881 -16438326.104 -19219554.450 10 0 59702 52200.00000 0 -2852893.595 -18624223.335 -17210844.450 10 0 59702 53100.00000 0 -2535392.098 -20585306.550 -14868269.927 10 0 59702 54000.00000 0 -2418747.869 -22263650.791 -12237279.436 10 0 59702 54900.00000 0 -2464322.526 -23610014.078 -9368908.575 10 0 59702 55800.00000 0 -2625249.699 -24585784.298 -6318794.097 10 0 59702 56700.00000 0 -2848640.844 -25164499.766 -3146098.780 10 0 59702 57600.00000 0 -3078049.701 -25332880.140 87632.513 10 0 59702 58500.00000 0 -3256091.180 -25091324.723 3319663.578 10 0 59702 59400.00000 0 -3327103.856 -24453857.288 6487281.459 10 0 59702 60300.00000 0 -3239743.282 -23447519.673 9529011.408 10 0 59702 61200.00000 0 -2949396.223 -22111239.402 12385808.509 10 0 59702 62100.00000 0 -2420313.252 -20494218.582 15002202.841 10 0 59702 63000.00000 0 -1627368.908 -18653911.300 17327375.973 10 0 59702 63900.00000 0 -557374.280 -16653673.951 19316147.814 10 0 59702 64800.00000 0 790114.517 -14560186.514 20929854.808 10 0 59702 65700.00000 0 2402527.405 -12440752.250 22137102.513 10 0 59702 66600.00000 0 4254563.762 -10360588.374 22914378.011 10 0 59702 67500.00000 0 6309018.014 -8380220.461 23246510.325 10 0 59702 68400.00000 0 8518114.556 -6553089.010 23126969.852 10 0 59702 69300.00000 0 10825297.727 -4923467.738 22558000.784 10 0 59702 70200.00000 0 13167403.541 -3524780.145 21550583.611 10 0 59702 71100.00000 0 15477123.717 -2378384.246 20124227.952 10 0 59702 72000.00000 0 17685659.948 -1492875.948 18306599.139 10 0 59702 72900.00000 0 19725458.197 -863939.692 16132985.209 10 0 59702 73800.00000 0 21532908.987 -474752.095 13645614.022 10 0 59702 74700.00000 0 23050900.675 -296920.999 10892833.382 10 0 59702 75600.00000 0 24231118.579 -291919.617 7928169.831 10 0 59702 76500.00000 0 25035993.194 -412954.417 4809284.386 10 0 59702 77400.00000 0 25440215.335 -607186.892 1596845.889 10 0 59702 78300.00000 0 25431754.242 -818214.128 -1646655.570 10 0 59702 79200.00000 0 25012335.700 -988702.047 -4858131.363 10 0 59702 80100.00000 0 24197360.109 -1063058.615 -7975128.403 10 0 59702 81000.00000 0 23015264.248 -990032.666 -10937049.720 10 0 59702 81900.00000 0 21506354.032 -725127.244 -13686337.049 10 0 59702 82800.00000 0 19721157.989 -232724.480 -16169591.761 10 0 59702 83700.00000 0 17718371.257 512168.573 -18338612.082 10 0 59702 84600.00000 0 15562476.906 1522627.435 -20151326.499 10 0 59702 85500.00000 0 13321144.772 2799025.912 -21572605.488 10 0 59703 0.00000 0 11062516.945 4328793.281 -22574936.395 10 0 59703 900.00000 0 8852491.952 6086724.373 -23138949.632 10 0 59703 1800.00000 0 6752123.596 8035827.813 -23253785.605 10 0 59703 2700.00000 0 4815237.936 10128680.157 -22917297.944 10 0 59703 3600.00000 0 3086369.617 12309227.913 -22136088.387 10 0 59703 4500.00000 0 1599100.963 14514963.678 -20925373.830 10 0 59703 5400.00000 0 374871.695 16679386.267 -19308688.292 10 0 59703 6300.00000 0 -577692.693 18734643.106 -17317425.611 10 0 59703 7200.00000 0 -1262907.326 20614245.472 -14990231.556 10 0 59703 8100.00000 0 -1697605.282 22255744.115 -12372256.779 10 0 59703 9000.00000 0 -1910184.804 23603254.263 -9514284.551 10 0 59703 9900.00000 0 -1939167.311 24609725.002 -6471749.774 10 0 59703 10800.00000 0 -1831327.644 25238858.552 -3303667.779 10 0 59703 11700.00000 0 -1639475.826 25466599.280 -71493.286 10 0 59703 12600.00000 0 -1419984.238 25282130.090 3162068.523 10 0 59703 13500.00000 0 -1230164.927 24688334.303 6334275.927 10 0 59703 14400.00000 0 -1125608.067 23701703.378 9383566.103 10 0 59703 15300.00000 0 -1157594.339 22351693.967 12250748.386 10 0 59703 16200.00000 0 -1370690.944 20679560.790 14880152.199 10 0 59703 17100.00000 0 -1800633.342 18736713.704 17220707.390 10 0 59703 18000.00000 0 -2472582.799 16582667.222 19226935.937 10 0 59703 18900.00000 0 -3399834.172 14282667.693 20859835.896 10 0 59703 19800.00000 0 -4583029.473 11905096.714 22087640.538 10 0 59703 20700.00000 0 -6009911.625 9518758.697 22886437.964 10 0 59703 21600.00000 0 -7655630.234 7190165.219 23240639.266 10 0 59703 22500.00000 0 -9483588.131 4980928.832 23143286.061 10 0 59703 23400.00000 0 -11446794.750 2945374.578 22596191.227 10 0 59703 24300.00000 0 -13489671.162 1128468.282 21609909.796 10 0 59703 25200.00000 0 -15550232.543 -435852.475 20203540.048 10 0 59703 26100.00000 0 -17562557.720 -1725875.447 18404358.126 10 0 59703 27000.00000 0 -19459443.223 -2732789.417 16247292.641 10 0 59703 27900.00000 0 -21175131.074 -3460810.846 13774248.846 10 0 59703 28800.00000 0 -22647996.045 -3926756.821 11033295.116 10 0 59703 29700.00000 0 -23823079.479 -4159083.131 8077727.271 10 0 59703 30600.00000 0 -24654362.881 -4196428.909 4965028.883 10 0 59703 31500.00000 0 -25106685.164 -4085730.291 1755748.162 10 0 59703 32400.00000 0 -25157222.427 -3879983.961 -1487686.247 10 0 59703 33300.00000 0 -24796467.525 -3635756.420 -4702186.773 10 0 59703 34200.00000 0 -24028667.928 -3410545.608 -7825241.009 10 0 59703 35100.00000 0 -22871703.366 -3260107.847 -10796133.523 10 0 59703 36000.00000 0 -21356408.543 -3235864.337 -13557130.845 10 0 59703 36900.00000 0 -19525369.725 -3382497.915 -16054605.900 10 0 59703 37800.00000 0 -17431246.162 -3735842.418 -18240079.780 10 0 59703 38700.00000 0 -15134687.138 -4321154.374 -20071160.625 10 0 59703 39600.00000 0 -12701932.279 -5151840.249 -21512361.633 10 0 59703 40500.00000 0 -10202195.584 -6228693.105 -22535783.003 10 0 59703 41400.00000 0 -7704942.222 -7539670.978 -23121645.349 10 0 59703 42300.00000 0 -5277171.310 -9060226.418 -23258665.116 10 0 59703 43200.00000 0 -2980817.018 -10754173.676 -22944265.617 10 0 59703 44100.00000 0 -870375.083 -12575057.610 -22184620.343 10 0 59703 45000.00000 0 1009147.756 -14467967.510 -20994528.245 10 0 59703 45900.00000 0 2623877.620 -16371720.683 -19397123.751 10 0 59703 46800.00000 0 3952243.819 -18221325.267 -17423427.125 10 0 59703 47700.00000 0 4985628.396 -19950620.073 -15111743.767 10 0 59703 48600.00000 0 5728469.373 -21494981.870 -12506923.700 10 0 59703 49500.00000 0 6197814.782 -22793987.530 -9659495.115 10 0 59703 50400.00000 0 6422347.306 -23793920.127 -6624688.306 10 0 59703 51300.00000 0 6440921.517 -24450014.368 -3461368.459 10 0 59703 52200.00000 0 6300675.962 -24728347.396 -230897.532 10 0 59703 53100.00000 0 6054800.167 -24607295.603 3004052.815 10 0 59703 54000.00000 0 5760051.151 -24078496.077 6180714.461 10 0 59703 54900.00000 0 5474124.587 -23147271.905 9237438.723 10 0 59703 55800.00000 0 5252991.898 -21832502.926 12114891.232 10 0 59703 56700.00000 0 5148316.050 -20165946.681 14757202.613 10 0 59703 57600.00000 0 5205055.570 -18191037.220 17113052.630 10 0 59703 58500.00000 0 5459358.367 -15961211.316 19136666.711 10 0 59703 59400.00000 0 5936834.873 -13537831.243 20788705.613 10 0 59703 60300.00000 0 6651284.092 -10987790.071 22037031.087 10 0 59703 61200.00000 0 7603927.192 -8380898.695 22857332.694 10 0 59703 62100.00000 0 8783182.047 -5787162.780 23233603.694 10 0 59703 63000.00000 0 10164989.545 -3274062.357 23158456.714 10 0 59703 63900.00000 0 11713679.296 -903946.827 22633272.828 10 0 59703 64800.00000 0 13383339.800 1268346.761 21668180.866 10 0 59703 65700.00000 0 15119636.905 3197553.489 20281866.830 10 0 59703 66600.00000 0 16862005.307 4849632.979 18501216.566 10 0 59703 67500.00000 0 18546122.039 6202946.047 16360797.994 10 0 59703 68400.00000 0 20106558.630 7248907.023 13902192.354 10 0 59703 69300.00000 0 21479500.736 7992085.043 11173187.033 10 0 59703 70200.00000 0 22605420.801 8449750.930 8226845.408 10 0 59703 71100.00000 0 23431590.975 8650889.643 5120471.716 10 0 59703 72000.00000 0 23914329.893 8634720.950 1914491.459 10 0 59703 72900.00000 0 24020888.043 8448791.952 -1328730.381 10 0 59703 73800.00000 0 23730891.651 8146723.338 -4546109.617 10 0 59703 74700.00000 0 23037283.667 7785705.948 -7675076.899 10 0 59703 75600.00000 0 21946721.859 7423854.868 -10654800.681 10 0 59703 76500.00000 0 20479417.047 7117534.174 -13427374.538 10 0 59703 77400.00000 0 18668418.288 6918766.485 -15938945.078 10 0 59703 78300.00000 0 16558375.182 6872837.617 -18140758.229 10 0 59703 79200.00000 0 14203829.375 7016198.045 -19990103.590 10 0 59703 80100.00000 0 11667107.047 7374750.019 -21451138.751 10 0 59703 81000.00000 0 9015900.503 7962592.590 -22495578.216 10 0 59703 81900.00000 0 6320639.648 8781277.380 -23103234.357 10 0 59703 82800.00000 0 3651762.559 9819606.267 -23262400.739 10 0 59703 83700.00000 0 1076998.039 11053979.468 -22970071.316 10 0 59703 84600.00000 0 -1341227.837 12449279.501 -22231991.980 10 0 59703 85500.00000 0 -3548154.505 13960254.175 -21062544.043 99